Weather History for Siemreap, Cambodia

Change the Weather History Date:

Wednesday, March 19, 2014

  Actual Average Record
Temperature  
Mean Temperature 88 °F -  
Max Temperature 95 °F - - ()
Min Temperature 80 °F - - ()
Cooling Degree Days 22    
Growing Degree Days 38 (Base 50)    
Moisture  
Dew Point 77 °F    
Average Humidity 71    
Maximum Humidity 94    
Minimum Humidity 53    
Precipitation  
Precipitation 0.00 in - - ()
Sea Level Pressure  
Sea Level Pressure 29.79 in    
Wind  
Wind Speed 4 mph ()    
Max Wind Speed 7 mph    
Max Gust Speed -    
Visibility 5.9 miles    
Events      
T = Trace of Precipitation, MM = Missing Value Source: Averaged Metar Reports

Daily Weather History Graph

Daily Weather History Graph

Search for Another Location

Airport:

Trip Planner

Search our weather history database for the weather conditions in past years. The results will help you decide how hot, cold, wet, or windy it might be!

Date:

Astronomy

Mar. 19, 2014 Rise Set
Actual Time 6:09 AM ICT 6:15 PM ICT
Civil Twilight 5:48 AM ICT 6:36 PM ICT
Nautical Twilight 5:23 AM ICT 7:01 PM ICT
Astronomical Twilight 4:59 AM ICT 7:25 PM ICT
Moon 8:29 PM ICT (3/19) 7:42 AM ICT (3/19)
Length of Visible Light 12h 48m
Length of Day
12h 05m
Waning Gibbous, 94% of the Moon is Illuminated
Mar 19
Waning Gibbous
Mar 24
Last Quarter
Mar 31
New
Apr 7
First Quarter
Apr 15
Full

Hourly Weather History & Observations

Time (ICT) Temp. Heat Index Dew Point Humidity Pressure Visibility Wind Dir Wind Speed Gust Speed Precip Events Conditions
12:00 AM 82.4 °F 92.4 °F 78.8 °F 89% 29.83 in 5.6 mi SW 5.8 mph - N/A   Unknown
12:30 AM 82.4 °F 92.4 °F 78.8 °F 89% 29.80 in 5.6 mi WSW 4.6 mph - N/A   Unknown
1:00 AM 80.6 °F 88.1 °F 78.8 °F 94% 29.80 in 5.6 mi WSW 4.6 mph - N/A   Unknown
7:00 AM 80.6 °F 88.1 °F 78.8 °F 94% 29.83 in 5.6 mi SE 2.3 mph - N/A   Scattered Clouds
7:30 AM 80.6 °F 88.1 °F 78.8 °F 94% 29.83 in 5.6 mi ESE 3.5 mph - N/A   Scattered Clouds
8:00 AM 82.4 °F 90.9 °F 77.0 °F 84% 29.86 in 5.6 mi Variable 1.2 mph - N/A   Scattered Clouds
8:30 AM 82.4 °F 90.9 °F 77.0 °F 84% 29.86 in 5.6 mi Variable 1.2 mph - N/A   Scattered Clouds
9:00 AM 84.2 °F 94.1 °F 77.0 °F 79% 29.86 in 5.6 mi Variable 2.3 mph - N/A   Scattered Clouds
9:30 AM 84.2 °F 94.1 °F 77.0 °F 79% 29.89 in 5.6 mi Variable 2.3 mph - N/A   Scattered Clouds
10:00 AM 86.0 °F 96.9 °F 77.0 °F 74% 29.89 in 6.2 mi Variable 2.3 mph - N/A   Scattered Clouds
10:30 AM 87.8 °F 97.6 °F 75.2 °F 66% 29.86 in 6.2 mi Variable 4.6 mph - N/A   Scattered Clouds
11:00 AM 87.8 °F 99.7 °F 77.0 °F 70% 29.86 in 6.2 mi SW 5.8 mph - N/A   Scattered Clouds
11:30 AM 89.6 °F 99.8 °F 75.2 °F 62% 29.83 in 6.2 mi SSW 6.9 mph - N/A   Scattered Clouds
12:00 PM 89.6 °F 98.2 °F 73.4 °F 59% 29.83 in 6.2 mi South 6.9 mph - N/A   Scattered Clouds
12:30 PM 91.4 °F 102.5 °F 75.2 °F 59% 29.83 in 6.2 mi Variable 3.5 mph - N/A   Scattered Clouds
1:00 PM 91.4 °F 102.5 °F 75.2 °F 59% 29.80 in 6.2 mi WSW 4.6 mph - N/A   Scattered Clouds
1:30 PM 93.2 °F 105.0 °F 75.2 °F 56% 29.77 in 6.2 mi Variable 2.3 mph - N/A   Scattered Clouds
2:00 PM 93.2 °F 105.0 °F 75.2 °F 56% 29.77 in 6.2 mi SSW 5.8 mph - N/A   Scattered Clouds
2:30 PM 93.2 °F 105.0 °F 75.2 °F 56% 29.74 in 6.2 mi Variable 4.6 mph - N/A   Scattered Clouds
3:00 PM 93.2 °F 105.0 °F 75.2 °F 56% 29.74 in 6.2 mi Variable 3.5 mph - N/A   Scattered Clouds
3:30 PM 93.2 °F 105.0 °F 75.2 °F 56% 29.71 in 6.2 mi SSW 4.6 mph - N/A   Scattered Clouds
4:00 PM 95.0 °F 107.4 °F 75.2 °F 53% 29.71 in 6.2 mi Variable 3.5 mph - N/A   Partly Cloudy
4:30 PM 93.2 °F 105.0 °F 75.2 °F 56% 29.71 in 6.2 mi South 4.6 mph - N/A   Partly Cloudy
5:00 PM 93.2 °F 105.0 °F 75.2 °F 56% 29.71 in 6.2 mi South 5.8 mph - N/A   Partly Cloudy
5:30 PM 91.4 °F 105.1 °F 77.0 °F 63% 29.68 in 6.2 mi SSE 5.8 mph - N/A   Partly Cloudy
6:00 PM 89.6 °F 99.8 °F 75.2 °F 62% 29.71 in 6.2 mi SSE 5.8 mph - N/A   Partly Cloudy
6:30 PM 87.8 °F 99.7 °F 77.0 °F 70% 29.71 in 5.6 mi SE 3.5 mph - N/A   Partly Cloudy
7:00 PM 87.8 °F 99.7 °F 77.0 °F 70% 29.74 in 5.6 mi SE 3.5 mph - N/A   Partly Cloudy
7:30 PM 87.8 °F 99.7 °F 77.0 °F 70% 29.74 in 5.6 mi SE 3.5 mph - N/A   Partly Cloudy
8:00 PM 86.0 °F 96.9 °F 77.0 °F 74% 29.74 in 5.6 mi SE 3.5 mph - N/A   Partly Cloudy
8:30 PM 86.0 °F 96.9 °F 77.0 °F 74% 29.77 in 5.6 mi ESE 3.5 mph - N/A   Partly Cloudy
9:00 PM 86.0 °F 96.9 °F 77.0 °F 74% 29.77 in 5.6 mi ESE 3.5 mph - N/A   Partly Cloudy
9:30 PM - - - N/A% - 5.6 mi ESE 3.5 mph - N/A   Unknown
10:00 PM 84.2 °F 94.1 °F 77.0 °F 79% 29.80 in 5.6 mi SSW 4.6 mph - N/A   Unknown
10:30 PM 84.2 °F 94.1 °F 77.0 °F 79% 29.80 in 5.6 mi SW 4.6 mph - N/A   Unknown
11:00 PM 82.4 °F 92.4 °F 78.8 °F 89% 29.80 in 5.6 mi SW 4.6 mph - N/A   Scattered Clouds
11:30 PM 82.4 °F 92.4 °F 78.8 °F 89% 29.80 in 5.6 mi SW 4.6 mph - N/A   Scattered Clouds